Location: Melara
(45.0500°N, 11.1833°E)
Time: 15:03:06
(UTC+00:00)

NOAA 15 - Pass Details

Date: 28 May 2024
Orbit: 796 x 810 km, 98.6° (Epoch: 18 June)

Event Time Altitude Azimuth Distance (km) Brightness Sun altitude
Rises 19:30:41 0° 216° (SW) 3,288 7.7 -6.4°
Reaches altitude 10° 19:34:14 10° 241° (WSW) 2,365 7.3 -6.9°
Maximum altitude 19:36:51 14° 272° (W) 2,108 7.6 -7.2°
Drops below altitude 10° 19:39:30 10° 302° (WNW) 2,375 8.7 -7.6°
Sets 19:43:06 0° 328° (NNW) 3,313 9.6 -8.0°
